Stations météo

Publicité
Pertusato, France (7770): Température de l'air & dewpoint: 14.07.2018 14:00:00 - 20.07.2018 14:00:00 (CEST)Pertusato, France (7770): Vitesse du vent & gusts: 14.07.2018 14:00:00 - 20.07.2018 14:00:00 (CEST)Pertusato, France (7770): Direction du vent: 14.07.2018 14:00:00 - 20.07.2018 14:00:00 (CEST)Pertusato, France (7770): reduced air pressure: 14.07.2018 14:00:00 - 20.07.2018 14:00:00 (CEST)Pertusato, France (7770): visibility: 14.07.2018 14:00:00 - 20.07.2018 14:00:00 (CEST)Pertusato, France (7770): Quantités de précipitations: 14.07.2018 14:00:00 - 20.07.2018 14:00:00 (CEST)
Date & Time tt [°C] td [°C] ff [km/h] ff [knt] fx [km/h] fx [knt] dd ppp [hPa] vv [km] rr [mm]
20.07.2018 14:00:00 27,1 20,9 14 7 22 12 W 1014,0 - 0,0
20.07.2018 13:00:00 26,2 21,0 18 10 27 14 W 1014,7 - 0,0
20.07.2018 12:00:00 25,8 21,0 17 9 24 13 W 1014,8 - 0,0
20.07.2018 11:00:00 24,8 20,7 12 6 26 14 W 1014,9 - 0,0
20.07.2018 10:00:00 24,7 21,0 15 8 21 12 W 1014,7 - 0,0
20.07.2018 09:00:00 24,3 21,2 13 7 21 12 W 1014,6 - 0,0
20.07.2018 08:00:00 23,3 20,8 16 9 25 14 W 1014,3 - 0,0
20.07.2018 07:00:00 22,6 20,9 18 10 28 15 W 1014,4 - 0,0
20.07.2018 06:00:00 22,0 20,8 18 10 29 16 W 1014,3 - 0,0
20.07.2018 05:00:00 22,4 21,2 18 10 37 20 W 1014,3 - 0,0
20.07.2018 04:00:00 22,6 21,1 25 13 39 21 W 1014,0 - 0,0
20.07.2018 03:00:00 22,7 21,5 13 7 29 15 WNW 1014,0 - 0,0
20.07.2018 02:00:00 22,7 21,7 20 11 27 15 W 1014,1 - 0,0
20.07.2018 01:00:00 22,9 21,7 21 12 31 17 W 1014,5 - 0,0
20.07.2018 00:00:00 23,1 21,7 24 13 31 17 W 1014,6 - 0,0
19.07.2018 23:00:00 23,1 21,9 22 12 31 17 W 1014,6 - 0,0
19.07.2018 22:00:00 23,5 21,9 21 11 32 17 W 1014,6 - 0,0
19.07.2018 21:00:00 23,5 21,0 19 10 39 21 W 1014,2 - 0,0
19.07.2018 20:00:00 24,4 21,1 19 10 41 22 W 1013,8 - 0,0
19.07.2018 19:00:00 24,9 20,6 23 12 51 28 W 1013,5 - 0,0
19.07.2018 18:00:00 25,3 21,0 32 17 52 28 W 1013,3 - 0,0
19.07.2018 17:00:00 25,6 20,4 40 21 52 28 W 1013,3 - 0,0
19.07.2018 16:00:00 26,0 20,3 39 21 53 29 W 1013,7 - 0,0
19.07.2018 15:00:00 25,5 20,1 32 18 62 34 W 1013,7 - 0,0
19.07.2018 14:00:00 25,7 22,0 42 23 51 28 W 1013,8 - 0,0
19.07.2018 13:00:00 26,4 20,9 30 16 38 21 W 1014,1 - 0,0
19.07.2018 12:00:00 25,7 21,8 14 8 25 13 W 1014,2 - 0,0
19.07.2018 11:00:00 25,5 22,2 8 5 18 10 NW 1014,0 - 0,0
19.07.2018 10:00:00 25,9 21,8 4 2 10 5 SW 1013,7 - 0,0
19.07.2018 09:00:00 25,8 22,1 3 1 12 6 WSW 1013,7 - 0,0
19.07.2018 08:00:00 24,2 21,9 4 2 6 3 SSW 1013,6 - 0,0
19.07.2018 07:00:00 22,9 21,9 6 3 15 8 W 1013,5 - 0,0
19.07.2018 06:00:00 23,4 22,4 10 5 26 14 W 1013,4 - 0,0
19.07.2018 05:00:00 23,4 22,4 13 7 29 16 W 1013,3 - 0,0
19.07.2018 04:00:00 23,4 22,6 16 8 32 17 WSW 1013,5 - 0,0
19.07.2018 03:00:00 23,6 22,6 15 8 24 13 WSW 1013,8 - 0,0
19.07.2018 02:00:00 22,8 21,8 9 5 16 9 W 1014,3 - 0,0
19.07.2018 01:00:00 23,2 22,2 8 4 17 9 W 1014,5 - 0,0
19.07.2018 00:00:00 23,0 22,0 13 7 16 9 W 1014,5 - 0,0
18.07.2018 23:00:00 23,2 22,0 11 6 12 7 W 1014,0 - 0,0
18.07.2018 22:00:00 23,4 22,2 6 4 14 8 WSW 1013,7 - 0,0
18.07.2018 21:00:00 23,5 21,8 10 5 13 7 W 1013,5 - 0,0
18.07.2018 20:00:00 24,3 21,8 8 4 16 9 WSW 1013,6 15 0,0
18.07.2018 19:00:00 25,3 22,0 9 5 18 10 W 1013,8 - 0,0
18.07.2018 18:00:00 25,8 21,9 14 7 20 11 W 1014,0 - 0,0
18.07.2018 17:00:00 26,0 21,9 16 8 23 13 W 1014,6 - 0,0
18.07.2018 16:00:00 26,1 21,7 18 10 26 14 W 1015,0 - 0,0
18.07.2018 15:00:00 27,4 21,9 16 8 22 12 W 1015,1 - 0,0
18.07.2018 14:00:00 26,6 21,4 18 10 30 16 W 1015,5 - 0,0
18.07.2018 13:00:00 26,0 21,2 19 11 29 16 W 1015,8 - 0,0
18.07.2018 12:00:00 24,8 20,7 10 6 30 16 W 1016,0 - 0,0
18.07.2018 11:00:00 24,3 20,6 12 6 35 19 W 1016,0 - 0,0
18.07.2018 10:00:00 23,9 20,4 13 7 32 17 WNW 1015,7 - 0,0
18.07.2018 09:00:00 24,4 20,1 16 9 22 12 W 1015,7 - 0,0
18.07.2018 08:00:00 23,5 20,0 17 9 22 12 W 1015,3 15 0,0
18.07.2018 07:00:00 22,4 19,9 18 10 22 12 W 1015,2 - 0,0
18.07.2018 06:00:00 21,8 19,7 17 9 24 13 W 1015,1 - 0,0
18.07.2018 05:00:00 21,9 19,5 20 11 32 18 W 1014,8 15 0,0
18.07.2018 04:00:00 22,2 19,9 26 14 39 21 W 1014,7 - 0,0
18.07.2018 03:00:00 22,6 20,1 29 16 52 28 W 1014,5 - 0,0
18.07.2018 02:00:00 22,6 19,9 29 16 56 30 W 1014,4 - 0,0
18.07.2018 01:00:00 22,8 20,0 23 12 54 29 W 1014,3 - 0,0
18.07.2018 00:00:00 22,9 20,1 31 17 56 31 W 1014,0 - 0,0
17.07.2018 23:00:00 22,8 20,0 27 15 56 31 W 1013,8 - 0,0
17.07.2018 22:00:00 22,9 20,1 35 19 59 32 W 1013,6 - 0,0
17.07.2018 21:00:00 23,0 20,3 16 9 53 29 WNW 1013,7 - 0,0
17.07.2018 20:00:00 23,6 20,7 28 15 49 26 W 1013,3 15 0,0
17.07.2018 19:00:00 24,2 20,3 26 14 48 26 W 1013,2 - 0,0
17.07.2018 18:00:00 24,5 20,6 21 11 49 27 W 1013,4 - 0,0
17.07.2018 17:00:00 24,4 20,5 20 11 47 26 W 1013,2 - 0,0
17.07.2018 16:00:00 24,6 20,3 18 10 48 26 W 1013,2 - 0,0
17.07.2018 15:00:00 24,7 20,2 20 11 51 28 W 1013,0 - 0,0
17.07.2018 14:00:00 24,6 20,1 18 10 52 28 WNW 1013,3 10 0,0
17.07.2018 13:00:00 24,8 20,3 16 9 45 24 W 1013,1 - 0,0
17.07.2018 12:00:00 24,5 19,8 15 8 36 19 W 1013,3 - 0,0
17.07.2018 11:00:00 24,6 19,7 23 12 31 17 W 1013,0 22 0,0
17.07.2018 10:00:00 24,3 19,4 27 14 34 18 W 1012,4 - 0,0
17.07.2018 09:00:00 23,4 18,1 26 14 41 22 W 1012,4 - 0,0
17.07.2018 08:00:00 22,5 17,6 33 18 53 29 W 1011,7 11 0,0
17.07.2018 07:00:00 21,8 17,2 41 22 55 30 W 1011,0 - 0,0
17.07.2018 06:00:00 21,1 17,3 25 14 45 24 WNW 1011,4 - 0,0
17.07.2018 05:00:00 21,6 17,8 31 17 52 28 WNW 1010,5 - 0,0
17.07.2018 04:00:00 21,5 18,5 33 18 59 32 WNW 1010,7 - 0,0
17.07.2018 03:00:00 21,4 18,6 37 20 66 36 WNW 1010,1 - 0,0
17.07.2018 02:00:00 21,5 18,3 45 25 84 45 W 1009,6 - 0,0
17.07.2018 01:00:00 22,3 18,7 62 33 101 55 W 1008,1 - 0,0
17.07.2018 00:00:00 22,7 19,5 32 18 70 38 W 1008,2 - 0,4
16.07.2018 23:00:00 22,6 17,7 41 22 71 39 W 1010,1 - 0,0
16.07.2018 22:00:00 23,2 19,4 31 17 68 37 W 1010,2 - 0,0
16.07.2018 21:00:00 23,8 19,5 30 16 73 40 W 1009,5 - 0,0
16.07.2018 20:00:00 25,0 21,9 44 24 68 37 WSW 1009,1 - 0,0
16.07.2018 19:00:00 25,0 22,3 38 20 79 43 WSW 1009,3 - 0,0
16.07.2018 18:00:00 25,6 22,1 36 20 67 36 WSW 1009,1 - 0,0
16.07.2018 17:00:00 26,3 21,9 48 26 90 49 W 1010,2 10 0,0
16.07.2018 16:00:00 31,9 15,8 3 2 21 11 E 1009,8 - 0,0
16.07.2018 15:00:00 31,0 15,4 13 7 29 16 ESE 1009,3 - 0,0
16.07.2018 14:00:00 29,6 16,8 14 7 46 25 E 1009,8 10 0,0
16.07.2018 13:00:00 28,2 16,8 33 18 51 28 SE 1010,0 - 0,0
16.07.2018 12:00:00 27,3 15,0 21 11 39 21 S 1012,2 - 0,0
16.07.2018 11:00:00 24,4 22,3 10 6 32 17 S 1013,9 10 0,0
16.07.2018 10:00:00 24,1 20,0 29 15 49 26 WNW 1014,2 - 0,0
16.07.2018 09:00:00 24,2 23,2 22 12 32 18 W 1014,3 - 0,0
16.07.2018 08:00:00 23,8 22,8 11 6 24 13 WSW 1013,2 10 0,0
16.07.2018 07:00:00 23,6 22,9 18 10 30 16 W 1013,4 - 0,0
16.07.2018 06:00:00 24,0 23,3 8 4 25 13 W 1013,3 - 0,0
16.07.2018 05:00:00 23,7 22,5 13 7 25 13 W 1014,1 10 0,0
16.07.2018 04:00:00 22,5 19,7 15 8 28 15 W 1013,8 - 0,0
16.07.2018 03:00:00 23,2 22,7 13 7 19 10 WNW 1014,1 - 0,0
16.07.2018 02:00:00 23,3 22,8 12 6 16 8 W 1013,6 - 0,0
16.07.2018 01:00:00 23,5 23,0 9 5 16 9 W 1013,5 - 0,0
16.07.2018 00:00:00 23,7 23,0 11 6 29 15 W 1013,7 - 0,0
15.07.2018 23:00:00 23,9 23,2 30 16 44 24 W 1014,6 - 0,0
15.07.2018 22:00:00 24,0 23,0 11 6 24 13 W 1014,3 - 0,0
15.07.2018 21:00:00 23,9 22,9 16 8 35 19 WNW 1013,6 - 0,0
15.07.2018 20:00:00 24,5 23,1 28 15 40 22 W 1013,4 - 0,0
15.07.2018 19:00:00 25,1 23,2 20 11 42 23 W 1013,6 - 0,0
15.07.2018 18:00:00 25,7 23,0 29 16 42 23 W 1013,9 - 0,0
15.07.2018 17:00:00 26,4 23,1 34 19 47 26 W 1014,4 - 0,0
15.07.2018 16:00:00 26,1 23,2 36 19 50 27 W 1014,3 - 0,0
15.07.2018 15:00:00 25,7 23,0 34 18 46 25 W 1014,3 - 0,0
15.07.2018 14:00:00 25,4 22,7 21 11 45 24 W 1014,6 - 0,0
15.07.2018 13:00:00 26,1 23,0 28 15 49 27 W 1015,0 - 0,0
15.07.2018 12:00:00 25,6 22,9 34 19 55 30 W 1014,4 - 0,0
15.07.2018 11:00:00 25,2 23,3 20 11 42 23 W 1014,3 11 0,0
15.07.2018 10:00:00 24,4 23,2 24 13 54 29 W 1014,0 - 0,0
15.07.2018 09:00:00 24,4 22,8 14 7 45 25 W 1014,2 - 0,0
15.07.2018 08:00:00 24,4 22,5 18 10 49 27 WNW 1013,8 11 0,0
15.07.2018 07:00:00 24,4 21,3 23 12 46 25 W 1013,2 - 0,0
15.07.2018 06:00:00 24,1 21,0 29 15 36 20 W 1013,4 - 0,0
15.07.2018 05:00:00 24,0 21,7 26 14 32 17 W 1013,5 11 0,0
15.07.2018 04:00:00 24,5 20,2 20 11 35 19 W 1013,4 - 0,0
15.07.2018 03:00:00 24,1 21,0 14 8 19 10 W 1013,6 - 0,0
15.07.2018 02:00:00 24,3 18,5 11 6 21 11 WNW 1013,7 - 0,0
15.07.2018 01:00:00 24,4 18,8 14 8 23 13 WNW 1013,9 - 0,0
15.07.2018 00:00:00 24,2 20,3 16 8 20 11 W 1014,1 - 0,0
14.07.2018 23:00:00 23,3 21,4 4 2 9 5 N 1013,9 - 0,0
14.07.2018 22:00:00 23,8 21,3 9 5 15 8 NE 1013,9 - 0,0
14.07.2018 21:00:00 24,4 20,7 11 6 24 13 ENE 1013,4 - 0,0
14.07.2018 20:00:00 25,9 20,0 18 10 31 17 ENE 1013,2 15 0,0
14.07.2018 19:00:00 27,4 19,2 22 12 36 20 ENE 1013,4 - 0,0
14.07.2018 18:00:00 28,7 17,9 24 13 43 23 ENE 1013,6 - 0,0
14.07.2018 17:00:00 29,8 12,7 29 16 46 25 ENE 1013,9 15 0,0
14.07.2018 16:00:00 29,3 19,0 32 18 49 26 ENE 1014,4 - 0,0
14.07.2018 15:00:00 29,7 20,3 30 16 50 27 ENE 1014,5 - 0,0
14.07.2018 14:00:00 29,3 19,9 29 15 50 27 ENE 1014,8 15 0,0

tt = Température de l'air
td = dewpoint
ff = Vitesse du vent
fx = gusts
dd = Direction du vent
ppp = reduced air pressure
vv = visibility
rr = Quantités de précipitations

stations d'obs. à proximité